PBO Station Position Time Series. Reference Frame : NAM14
Format Version,1.1.1
4-character ID,MNRT
Station name,ROTHSAY
Begin Date, 2005-12-01
End Date, 2023-06-25
Release Date, 2023-06-27
Reference position, 46.4905096032 North Latitude, -96.2912802405 East Longitude, 345.23617 meters elevation,
Date, North (mm), East (mm), Vertical (mm), North Std. Deviation (mm), East Std. Deviation (mm),              Vertical Std. Deviation (mm), Quality,
2005-12-01,0.00, 0.00, 0.00, 2.29, 1.62, 7.35, repro,
2005-12-02,0.45, 0.56, 1.51, 2.28, 1.60, 7.26, repro,
2005-12-03,0.83, 0.84, 5.90, 2.24, 1.60, 7.23, repro,
2005-12-04,0.90, -0.06, 3.96, 2.29, 1.61, 7.35, repro,
2005-12-06,0.82, 0.19, -4.60, 2.28, 1.62, 7.37, repro,
2005-12-07,0.53, -0.09, -5.86, 2.28, 1.62, 7.34, repro,
2005-12-08,-1.02, -0.33, -4.36, 2.25, 1.60, 7.26, repro,
2005-12-09,-0.68, -0.39, 6.31, 2.29, 1.62, 7.37, repro,
2005-12-10,-0.73, -0.75, 2.81, 2.26, 1.61, 7.29, repro,
2005-12-11,0.26, -0.24, 7.04, 2.24, 1.60, 7.25, repro,
2005-12-12,0.54, -0.89, 5.59, 2.23, 1.59, 7.18, repro,
2005-12-13,0.69, 0.37, 6.88, 2.31, 1.64, 7.40, repro,
2005-12-14,0.18, -0.53, -10.31, 2.47, 1.79, 8.22, repro,
2005-12-15,-0.07, -0.22, 2.77, 2.30, 1.65, 7.50, repro,
2005-12-17,1.41, -0.14, -5.17, 2.33, 1.68, 7.65, repro,
2005-12-18,-0.55, -0.47, -10.65, 2.26, 1.62, 7.37, repro,
2005-12-19,-0.52, -0.14, -4.65, 2.40, 1.69, 7.77, repro,
2005-12-20,-0.27, -0.72, -6.16, 2.36, 1.70, 7.71, repro,
2005-12-21,-0.07, -0.24, -2.78, 2.30, 1.62, 7.46, repro,
2005-12-22,0.60, 0.15, 4.43, 2.29, 1.63, 7.45, repro,
2005-12-23,0.36, -0.45, 8.79, 2.49, 1.73, 8.02, repro,
2005-12-24,1.35, -1.20, 5.56, 2.39, 1.66, 7.65, repro,
2005-12-25,0.35, 0.21, 5.40, 2.45, 1.71, 7.91, repro,
2005-12-26,0.83, 0.22, 11.99, 2.35, 1.62, 7.42, repro,
2005-12-27,0.52, -0.02, 10.44, 2.42, 1.68, 7.75, repro,
2005-12-28,1.91, -1.82, 3.15, 2.35, 1.65, 7.54, repro,
2005-12-29,1.11, -0.97, 6.42, 2.55, 1.80, 8.20, repro,
2005-12-30,1.23, -1.06, 4.18, 2.56, 1.81, 8.28, repro,
2005-12-31,-0.06, -0.43, 7.18, 2.56, 1.76, 8.07, repro,
2006-01-01,-0.67, -0.52, 6.96, 2.46, 1.72, 7.75, repro,
2006-01-02,-0.41, -1.31, 5.06, 2.34, 1.66, 7.63, repro,
2006-01-03,0.06, -1.02, 1.55, 2.63, 1.83, 8.47, repro,
2006-01-04,-0.17, -1.96, 1.21, 2.40, 1.69, 7.76, repro,
2006-01-05,0.56, -0.75, -7.69, 2.50, 1.72, 8.07, repro,
2006-01-06,-0.20, -0.92, -6.63, 2.48, 1.71, 8.01, repro,
2006-01-07,1.00, -1.89, 5.57, 2.41, 1.68, 7.76, repro,
2006-01-08,0.09, -1.54, 3.57, 2.47, 1.73, 7.96, repro,
2006-01-09,-0.70, -1.64, -4.95, 2.47, 1.72, 7.96, repro,
2006-01-10,-0.76, -1.12, -0.11, 2.41, 1.67, 7.65, repro,
2006-01-11,0.63, -0.74, 3.00, 2.43, 1.70, 7.75, repro,
2006-01-12,-0.93, -1.14, 6.95, 2.33, 1.66, 7.61, repro,
2006-01-13,1.73, -2.49, -4.98, 2.53, 1.76, 8.12, repro,
2006-01-14,0.57, -1.19, -2.95, 2.25, 1.61, 7.28, repro,
2006-01-15,0.82, -0.88, 4.02, 2.32, 1.65, 7.54, repro,
2006-01-16,0.66, -2.05, 5.18, 2.33, 1.65, 7.56, repro,
2006-01-17,0.45, -2.03, 1.09, 2.43, 1.66, 7.64, repro,
2006-01-18,0.93, -2.22, 4.73, 2.34, 1.65, 7.59, repro,
2006-01-19,0.36, -1.58, 2.66, 2.28, 1.65, 7.42, repro,
2006-01-20,1.15, -2.02, -7.19, 2.31, 1.69, 7.53, repro,
2006-01-21,0.85, -1.60, -2.50, 2.28, 1.59, 7.28, repro,
2006-01-23,0.35, -1.28, 0.74, 2.27, 1.59, 7.23, repro,
2006-01-24,0.54, -3.13, -4.27, 2.34, 1.65, 7.46, repro,
2006-01-25,0.54, -1.82, -11.09, 2.18, 1.56, 7.06, repro,
2006-01-26,-0.31, -0.69, -4.95, 2.20, 1.56, 7.05, repro,
2006-01-27,0.73, -1.04, -1.77, 2.21, 1.56, 7.08, repro,
2006-01-28,0.88, -0.76, -2.82, 2.19, 1.55, 7.01, repro,
2006-01-29,1.64, -1.35, 3.08, 2.26, 1.63, 7.31, repro,
2006-01-30,1.09, -1.59, -0.62, 2.21, 1.57, 7.13, repro,
2006-01-31,-0.09, -2.08, 7.02, 2.19, 1.56, 7.04, repro,
2006-02-01,-0.10, -1.70, 8.74, 2.18, 1.57, 7.09, repro,
2006-02-02,1.30, -1.16, 6.32, 2.20, 1.56, 7.09, repro,
2006-02-03,1.86, -1.56, 3.21, 2.24, 1.59, 7.26, repro,
2006-02-04,1.74, -1.15, -3.55, 2.22, 1.59, 7.19, repro,
2006-02-05,2.06, -1.50, -1.57, 2.21, 1.58, 7.17, repro,
2006-02-07,1.79, -1.25, -9.30, 2.24, 1.62, 7.37, repro,
2006-02-08,1.39, -0.40, -15.09, 2.27, 1.64, 7.50, repro,
2006-02-13,1.10, -0.63, -1.87, 3.38, 2.39, 11.09, repro,
2006-02-14,2.17, -1.72, -1.19, 2.19, 1.59, 7.16, repro,
2006-02-15,1.90, -2.28, -6.38, 2.23, 1.66, 7.48, repro,
2006-02-16,2.93, -1.84, -14.03, 2.20, 1.60, 7.23, repro,
2006-02-17,1.42, -1.53, -18.57, 2.25, 1.64, 7.35, repro,
2006-02-18,0.88, -1.00, -18.53, 2.27, 1.71, 7.62, repro,
2006-02-19,0.71, -0.88, -8.58, 2.23, 1.68, 7.52, repro,
2006-02-20,1.77, -0.94, -5.97, 2.21, 1.64, 7.37, repro,
2006-02-21,0.79, -0.37, -1.75, 2.26, 1.69, 7.56, repro,
2006-02-22,-0.20, -1.01, 1.75, 2.29, 1.74, 7.74, repro,
2006-02-23,1.29, -0.79, -6.00, 2.26, 1.69, 7.54, repro,
2006-02-24,2.00, -1.44, -7.67, 2.18, 1.62, 7.23, repro,
2006-02-25,2.79, -1.19, -20.29, 2.28, 1.70, 7.68, repro,
2006-02-26,1.23, -1.28, -14.62, 2.26, 1.70, 7.61, repro,
2006-02-27,2.82, -0.52, -6.37, 2.27, 1.69, 7.55, repro,
2006-02-28,2.35, -0.52, -2.52, 2.26, 1.69, 7.54, repro,
2006-03-01,2.20, -2.85, 1.90, 2.84, 2.59, 10.21, repro,
2006-03-02,2.84, -2.13, -9.56, 2.22, 1.66, 7.30, repro,
2006-03-03,2.59, -1.93, -16.01, 2.25, 1.71, 7.52, repro,
2006-03-04,2.70, -0.25, -16.72, 2.22, 1.67, 7.48, repro,
2006-03-05,2.52, -0.00, -19.78, 2.19, 1.62, 7.25, repro,
2006-03-06,1.14, -1.05, -14.36, 2.20, 1.66, 7.28, repro,
2006-03-07,0.43, 0.09, -11.83, 2.19, 1.61, 7.23, repro,
2006-03-08,1.23, -0.20, 0.28, 2.20, 1.64, 7.35, repro,
2006-03-09,2.22, -0.91, 6.68, 2.18, 1.62, 7.30, repro,
2006-03-10,2.21, 0.33, -1.74, 3.67, 2.58, 12.17, repro,
2006-03-11,0.85, -0.22, -2.17, 2.25, 1.67, 7.47, repro,
2006-03-12,1.37, -0.37, -2.29, 2.23, 1.64, 7.47, repro,
2006-03-13,0.94, -2.67, 9.74, 11.29, 13.93, 67.97, repro,
2006-03-14,2.59, -1.33, -1.41, 2.22, 1.65, 7.56, repro,
2006-03-15,1.60, -1.09, -7.45, 2.22, 1.65, 7.45, repro,
2006-03-16,1.49, -0.63, -7.91, 2.30, 1.67, 7.69, repro,
2006-03-17,2.23, 0.29, -13.25, 2.36, 1.72, 7.88, repro,
2006-03-18,0.43, 0.68, -14.23, 2.22, 1.65, 7.47, repro,
2006-03-19,2.22, 0.09, -10.23, 2.23, 1.66, 7.56, repro,
2006-03-20,0.70, 0.78, -8.30, 2.20, 1.64, 7.36, repro,
2006-03-21,1.38, 0.13, -5.62, 2.22, 1.64, 7.40, repro,
2006-03-22,0.36, -0.02, -10.38, 2.46, 1.78, 8.14, repro,
2006-03-23,-0.21, 0.19, -8.62, 2.34, 1.72, 7.80, repro,
2006-03-28,0.72, -1.18, -5.30, 3.43, 2.42, 11.37, repro,
2006-03-29,-0.00, -0.45, -2.91, 2.18, 1.60, 7.30, repro,
2006-03-30,0.46, 0.57, -4.13, 2.21, 1.64, 7.39, repro,
2006-03-31,0.83, -1.05, -0.35, 2.20, 1.60, 7.27, repro,
2006-04-01,1.02, -0.13, -5.18, 2.23, 1.64, 7.44, repro,
2006-04-02,0.76, 0.10, -1.04, 2.20, 1.64, 7.39, repro,
2006-04-03,0.52, -0.35, -6.25, 2.15, 1.59, 7.15, repro,
2006-04-04,0.58, 0.53, -3.68, 2.16, 1.59, 7.16, repro,
2006-04-05,0.84, 0.61, 0.32, 2.21, 1.62, 7.30, repro,
2006-04-06,3.24, 0.58, 9.81, 3.66, 2.54, 12.05, repro,
2006-04-07,2.43, -0.49, -1.65, 2.24, 1.69, 7.54, repro,
2006-04-08,0.86, -0.08, -2.88, 2.22, 1.62, 7.28, repro,
2006-04-10,1.48, 0.84, 1.43, 3.25, 2.25, 10.46, repro,
2006-04-11,0.20, -0.68, 4.10, 2.30, 1.66, 7.50, repro,
2006-04-12,0.56, -0.16, -0.45, 2.25, 1.62, 7.33, repro,
2006-04-13,1.53, 0.68, 0.20, 2.16, 1.59, 7.11, repro,
2006-04-14,-0.31, 0.11, 3.12, 2.23, 1.65, 7.40, repro,
2006-04-15,-0.02, 0.31, 7.49, 2.24, 1.63, 7.37, repro,
2006-04-16,0.99, 0.30, 7.46, 2.19, 1.60, 7.18, repro,
2006-04-17,3.80, -0.44, 8.38, 3.69, 2.47, 11.65, repro,
2006-04-18,-0.04, -0.50, 0.23, 2.23, 1.63, 7.34, repro,
2006-04-19,0.23, -0.52, 1.77, 2.17, 1.58, 7.12, repro,
2006-04-20,0.27, -0.27, -2.41, 2.24, 1.61, 7.28, repro,
2006-04-21,-0.56, -1.21, 0.35, 2.18, 1.59, 7.14, repro,
2006-04-22,1.13, 0.25, -4.05, 2.19, 1.58, 7.12, repro,
2006-04-23,1.08, -0.43, -0.93, 2.24, 1.64, 7.32, repro,
2006-04-24,1.37, -1.60, 2.90, 3.80, 2.65, 11.98, repro,
2006-04-25,0.47, -0.63, 1.33, 2.21, 1.63, 7.20, repro,
2006-04-27,3.27, 0.43, -2.25, 4.01, 2.74, 12.39, repro,
2006-04-28,1.08, 0.39, 1.00, 2.87, 2.00, 9.27, repro,
2006-04-29,-0.69, -0.48, -3.51, 2.18, 1.58, 7.09, repro,
2006-04-30,-0.28, -0.57, 1.95, 2.17, 1.58, 7.01, repro,
2006-05-01,-1.29, -0.83, 0.72, 2.17, 1.58, 7.02, repro,
2006-05-02,-0.96, -0.71, 1.06, 2.22, 1.63, 7.29, repro,
2006-05-03,0.09, -1.08, 1.35, 2.18, 1.58, 7.06, repro,
2006-05-04,-0.75, -1.74, 1.90, 2.22, 1.61, 7.20, repro,
2006-05-05,-1.05, -0.54, 4.36, 2.19, 1.58, 7.10, repro,
2006-05-06,-0.77, 0.12, 6.89, 2.17, 1.58, 7.01, repro,
2006-05-07,-0.29, 0.34, 8.22, 2.18, 1.58, 7.04, repro,
2006-05-08,-0.25, 0.25, 8.66, 2.18, 1.59, 7.09, repro,
2006-05-09,-0.60, -1.08, 14.63, 2.28, 1.63, 7.31, repro,
2006-05-10,-0.31, -1.05, 1.18, 2.20, 1.59, 7.12, repro,
2006-05-11,0.84, -0.58, 4.10, 2.19, 1.58, 7.04, repro,
2006-05-12,-0.24, -1.90, 8.25, 2.19, 1.59, 7.06, repro,
2006-05-13,1.51, -0.99, 3.48, 2.18, 1.58, 7.03, repro,
2006-05-14,-0.44, -0.76, -2.52, 2.18, 1.58, 7.07, repro,
2006-05-15,0.23, -0.72, -4.43, 2.21, 1.59, 7.14, repro,
2006-05-16,0.34, -0.82, -0.26, 2.25, 1.59, 7.19, repro,
2006-05-17,-1.01, -0.09, 5.19, 2.38, 1.70, 7.92, repro,
2006-05-18,0.62, 0.27, 6.43, 2.25, 1.64, 7.29, repro,
2006-05-19,0.33, -0.45, 7.07, 2.27, 1.62, 7.27, repro,
2006-05-20,0.77, -0.65, -0.97, 2.26, 1.62, 7.27, repro,
2006-05-22,-0.30, -1.25, -3.15, 3.53, 2.27, 10.74, repro,
2006-05-23,0.15, -0.42, 2.34, 2.28, 1.65, 7.39, repro,
2006-05-24,-0.87, -0.01, 2.18, 2.41, 1.73, 7.73, repro,
2006-05-25,0.61, -2.16, 8.35, 2.40, 1.67, 7.57, repro,
2006-05-29,-2.53, 1.60, 6.43, 3.66, 2.36, 11.11, repro,
2006-05-30,0.22, 0.28, -1.00, 2.35, 1.66, 7.53, repro,
2006-05-31,-1.38, -0.61, 1.82, 2.31, 1.64, 7.38, repro,
2006-06-01,-0.10, -1.16, -0.97, 2.45, 1.72, 7.74, repro,
2006-06-02,1.69, -0.24, 3.66, 2.33, 1.68, 7.58, repro,
2006-06-03,1.78, -0.38, -1.81, 2.30, 1.67, 7.46, repro,
2006-06-04,2.02, -0.17, 8.23, 2.31, 1.65, 7.43, repro,
2006-06-05,1.10, 0.62, 6.29, 2.40, 1.73, 7.80, repro,
2006-06-06,1.58, 0.26, 9.06, 2.40, 1.69, 7.71, repro,
2006-06-07,0.12, -0.09, 4.23, 2.38, 1.69, 7.67, repro,
2006-06-08,0.29, -1.10, 2.74, 2.25, 1.61, 7.24, repro,
2006-06-09,2.20, 0.33, 2.01, 2.27, 1.63, 7.33, repro,
2006-06-10,1.29, 0.03, 1.41, 2.26, 1.60, 7.24, repro,
2006-06-11,1.55, -0.20, -1.03, 2.32, 1.64, 7.41, repro,
2006-06-12,0.06, 0.42, -0.78, 3.55, 2.29, 10.65, repro,
2006-06-13,0.89, -0.57, 3.69, 3.68, 2.36, 10.90, repro,
2006-06-14,-0.01, 0.06, 6.42, 2.27, 1.63, 7.29, repro,
2006-06-15,0.73, 0.55, 9.53, 2.39, 1.65, 7.50, repro,
2006-06-16,0.05, 0.19, 6.00, 2.25, 1.62, 7.23, repro,
2006-06-17,-0.00, -2.39, 17.71, 3.67, 2.36, 10.83, repro,
2006-06-18,0.28, -0.50, 7.60, 2.36, 1.72, 7.62, repro,
2006-06-19,-0.43, -0.48, 2.41, 2.32, 1.67, 7.42, repro,
2006-06-20,0.23, -0.68, 6.49, 2.31, 1.65, 7.36, repro,
2006-06-21,1.40, -1.06, 9.33, 2.34, 1.71, 7.64, repro,
2006-06-22,1.20, -0.80, -2.10, 2.31, 1.68, 7.41, repro,
2006-06-23,1.31, 0.56, -2.91, 2.41, 1.74, 7.70, repro,
2006-06-24,-0.85, -1.20, 0.84, 2.36, 1.72, 7.65, repro,
2006-06-25,-0.10, -1.27, -7.93, 2.32, 1.69, 7.45, repro,
2006-06-26,-1.29, -0.74, -0.19, 2.44, 1.79, 7.82, repro,
2006-06-27,0.68, -1.22, -1.95, 2.39, 1.74, 7.76, repro,
2006-06-28,-0.03, -0.98, 3.91, 2.33, 1.68, 7.47, repro,
2006-06-29,0.89, 0.19, 4.17, 2.26, 1.63, 7.24, repro,
2006-06-30,0.86, 0.19, 8.87, 3.47, 2.24, 10.43, repro,
2006-07-01,0.23, -2.43, 6.73, 2.40, 1.71, 7.66, repro,
2006-07-02,0.92, -0.57, 4.69, 2.25, 1.62, 7.25, repro,
2006-07-03,0.46, -0.96, 6.94, 2.45, 1.79, 7.91, repro,
2006-07-04,-0.19, -0.23, -1.59, 2.25, 1.60, 7.19, repro,
2006-07-05,-0.05, -0.08, 0.72, 2.27, 1.63, 7.30, repro,
2006-07-06,-0.10, -0.58, -1.57, 2.27, 1.63, 7.31, repro,
2006-07-07,1.25, -0.45, -2.23, 2.25, 1.62, 7.23, repro,
2006-07-08,1.60, -0.03, 0.27, 2.28, 1.64, 7.39, repro,
2006-07-09,0.28, -1.32, 8.93, 2.26, 1.61, 7.21, repro,
2006-07-10,0.06, 0.52, 5.64, 2.25, 1.61, 7.23, repro,
2006-07-11,-0.30, -0.42, 2.20, 2.25, 1.62, 7.25, repro,
2006-07-12,1.35, -0.63, 8.45, 2.26, 1.62, 7.26, repro,
2006-07-13,2.24, 0.72, 11.01, 2.71, 2.02, 8.80, repro,
2006-07-14,1.61, -0.95, 15.44, 2.28, 1.62, 7.27, repro,
2006-07-15,1.49, 0.16, 10.23, 2.27, 1.62, 7.25, repro,
2006-07-16,4.26, -2.38, 12.51, 2.26, 1.63, 7.32, repro,
2006-07-17,1.28, -1.32, 9.47, 2.36, 1.69, 7.62, repro,
2006-07-18,0.81, -0.90, 7.75, 2.27, 1.63, 7.33, repro,
2006-07-20,-6.31, -1.66, -5.90, 4.98, 3.37, 15.77, repro,
2006-07-21,0.22, -2.45, 2.32, 2.18, 1.59, 7.08, repro,
2006-07-22,0.88, 0.97, 5.31, 2.35, 1.65, 7.47, repro,
2006-07-23,-0.48, -1.10, 9.22, 2.21, 1.59, 7.07, repro,
2006-07-24,-1.35, -0.88, 7.71, 2.31, 1.62, 7.31, repro,
2006-07-25,1.20, -1.89, 10.18, 2.31, 1.66, 7.41, repro,
2006-07-26,1.21, -0.75, 8.66, 2.26, 1.65, 7.29, repro,
2006-07-27,0.58, -0.64, 15.19, 2.19, 1.58, 7.04, repro,
2006-07-28,0.04, -1.63, 14.18, 2.23, 1.59, 7.10, repro,
2006-07-29,-0.50, -1.81, 16.80, 2.37, 1.68, 7.71, repro,
2006-07-30,0.69, -0.05, 22.54, 2.23, 1.59, 7.08, repro,
2006-07-31,2.73, -0.25, 15.86, 2.30, 1.66, 7.41, repro,
2006-08-01,0.86, -1.86, 15.54, 2.20, 1.59, 7.09, repro,
2006-08-02,1.19, -1.12, 13.42, 2.26, 1.62, 7.24, repro,
2006-08-03,-1.22, -1.45, 5.29, 2.26, 1.63, 7.26, repro,
2006-08-04,0.13, -0.82, 12.41, 2.37, 1.68, 7.54, repro,
2006-08-05,-0.84, -2.75, 15.92, 2.28, 1.65, 7.34, repro,
2006-08-06,-1.17, 0.03, 8.43, 2.33, 1.66, 7.42, repro,
2006-08-07,0.04, -0.96, 5.68, 2.26, 1.63, 7.23, repro,
2006-08-08,-0.89, 0.51, 8.98, 2.20, 1.59, 7.06, repro,
2006-08-09,-0.66, 1.40, 10.95, 2.21, 1.59, 7.10, repro,
2006-08-10,-1.28, -1.53, 21.67, 2.48, 1.77, 7.97, repro,
2006-08-11,1.02, -0.52, 5.38, 2.18, 1.58, 6.99, repro,
2006-08-12,-1.66, -0.87, 15.46, 2.36, 1.64, 7.53, repro,
2006-08-13,1.72, -1.28, 11.62, 2.22, 1.59, 7.14, repro,
2006-08-14,0.15, -0.68, 9.28, 2.26, 1.60, 7.21, repro,
2006-08-15,0.55, -0.93, 14.84, 2.35, 1.65, 7.40, repro,
2006-08-16,-0.63, -0.07, 15.79, 2.21, 1.60, 7.12, repro,
2006-08-17,2.09, -1.19, 0.26, 2.34, 1.69, 7.67, repro,
2006-08-18,-1.33, -1.27, 11.93, 2.32, 1.68, 7.44, repro,
2006-08-19,0.04, -1.09, 4.49, 2.26, 1.63, 7.33, repro,
2006-08-20,-0.42, -0.72, 7.44, 2.23, 1.60, 7.17, repro,
2006-08-21,1.16, -1.62, 9.57, 2.25, 1.60, 7.24, repro,
2006-08-22,1.21, -0.77, 5.11, 2.25, 1.60, 7.26, repro,
2006-08-23,1.33, -2.15, 12.60, 2.31, 1.64, 7.46, repro,
2006-08-24,-1.29, -1.52, 16.62, 2.27, 1.61, 7.32, repro,
2006-08-25,2.08, -1.65, 3.74, 2.32, 1.65, 7.44, repro,
2006-08-26,-0.48, -1.55, 5.34, 2.31, 1.67, 7.36, repro,
2006-08-27,-0.22, -0.90, 9.76, 2.33, 1.68, 7.41, repro,
2006-08-28,-1.33, -1.35, 5.44, 2.34, 1.68, 7.46, repro,
2006-08-29,0.39, -0.89, 7.67, 2.35, 1.70, 7.52, repro,
2006-08-30,0.60, -0.75, 9.71, 2.35, 1.68, 7.47, repro,
2006-08-31,-0.81, -0.27, 7.68, 2.32, 1.68, 7.41, repro,
2006-09-01,-0.91, -1.69, 8.21, 2.33, 1.68, 7.40, repro,
2006-09-02,0.08, -1.34, 2.81, 2.34, 1.68, 7.42, repro,
2006-09-03,0.67, -2.15, 10.04, 2.35, 1.69, 7.47, repro,
2006-09-04,-1.80, -1.45, 4.79, 2.37, 1.73, 7.70, repro,
2006-09-05,-0.09, -2.15, 0.29, 2.39, 1.73, 7.71, repro,
2006-09-06,-1.50, -2.05, 7.47, 2.35, 1.69, 7.48, repro,
2006-09-07,0.79, -1.92, 8.44, 2.38, 1.74, 7.68, repro,
2006-09-08,0.32, -1.43, 1.94, 2.52, 1.90, 8.20, repro,
2006-09-09,-0.20, -0.98, 9.41, 2.29, 1.64, 7.31, repro,
2006-09-10,-0.77, -1.62, 12.81, 2.28, 1.65, 7.32, repro,
2006-09-11,-1.50, -1.15, 6.14, 2.31, 1.67, 7.44, repro,
2006-09-12,-1.26, -1.80, 6.67, 2.33, 1.67, 7.43, repro,
2006-09-13,-0.28, -1.02, 10.57, 2.29, 1.64, 7.28, repro,
2006-09-14,-0.00, -1.29, 16.01, 2.42, 1.70, 7.65, repro,
2006-09-15,-1.89, -0.62, 11.11, 2.40, 1.69, 7.58, repro,
2006-09-16,-0.19, 0.06, 17.52, 2.26, 1.62, 7.34, repro,
2006-09-17,-2.71, -3.05, 21.24, 2.45, 1.79, 7.99, repro,
2006-09-18,-0.66, -2.41, 12.61, 2.23, 1.59, 7.13, repro,
2006-09-19,-0.76, -1.28, 7.63, 2.25, 1.59, 7.18, repro,
2006-09-20,-0.15, -1.83, 5.80, 2.24, 1.60, 7.19, repro,
2006-09-21,-0.36, -1.32, 10.90, 2.34, 1.68, 7.52, repro,
2006-09-22,-0.60, -0.98, 13.46, 2.33, 1.67, 7.45, repro,
2006-09-23,-0.78, -2.21, 15.07, 2.44, 1.75, 8.05, repro,
2006-09-24,-1.79, -1.88, 6.81, 2.35, 1.64, 7.45, repro,
2006-09-25,-1.49, -3.35, 5.37, 2.29, 1.64, 7.34, repro,
2006-09-26,-0.50, -1.73, 11.60, 2.28, 1.65, 7.31, repro,
2006-09-29,-1.71, -1.82, 9.77, 2.44, 1.77, 7.69, repro,
2006-10-02,-0.13, -1.96, 10.37, 2.32, 1.66, 7.47, repro,
2006-10-04,0.70, -1.78, -3.67, 2.30, 1.64, 7.31, repro,
2006-10-05,-1.62, -1.32, -1.63, 2.24, 1.59, 7.16, repro,
2006-10-06,-0.88, -0.84, 2.39, 2.26, 1.62, 7.26, repro,
2006-10-07,-0.25, -2.86, 4.29, 2.48, 1.77, 7.78, repro,
2006-10-08,0.50, -1.77, 8.08, 2.31, 1.66, 7.39, repro,
2006-10-09,0.25, -2.65, 0.65, 2.39, 1.73, 7.55, repro,
2006-10-10,-0.29, -1.43, 5.75, 2.31, 1.68, 7.45, repro,
2006-10-11,-0.58, -2.62, 16.70, 2.30, 1.70, 7.48, repro,
2006-10-12,-1.35, -2.29, 17.87, 2.28, 1.63, 7.34, repro,
2006-10-13,-0.64, -3.18, 18.05, 2.20, 1.60, 7.21, repro,
2006-10-14,0.38, -3.00, 11.73, 2.33, 1.70, 7.46, repro,
2006-10-15,-0.10, -1.41, 16.68, 2.52, 1.86, 8.32, repro,
2006-10-16,0.98, -0.31, 18.23, 2.27, 1.60, 7.25, repro,
2006-10-17,1.95, -1.44, 12.87, 2.29, 1.67, 7.42, repro,
2006-10-18,-0.10, -2.44, 6.24, 2.26, 1.64, 7.39, repro,
2006-10-19,1.20, -2.15, 8.51, 2.35, 1.74, 7.69, repro,
2006-10-20,-0.42, -1.25, 13.33, 2.51, 1.83, 7.85, repro,
2006-10-21,0.32, -1.13, 5.80, 2.31, 1.71, 7.42, repro,
2006-10-22,0.11, -2.28, 9.58, 2.33, 1.74, 7.83, repro,
2006-10-23,-1.04, -0.99, 5.56, 2.50, 1.84, 8.21, repro,
2006-10-24,0.55, 0.90, 11.70, 2.45, 1.88, 8.66, repro,
2006-10-25,0.00, -0.60, 7.91, 2.43, 1.75, 7.73, repro,
2006-10-26,-0.15, -1.38, 8.07, 2.36, 1.68, 7.42, repro,
2006-10-27,-0.25, -1.53, 11.43, 2.28, 1.68, 7.30, repro,
2006-10-28,0.06, -2.79, 7.51, 2.33, 1.71, 7.51, repro,
2006-10-29,0.79, -2.00, 9.68, 2.30, 1.69, 7.44, repro,
2006-10-30,-0.15, -1.93, 10.53, 2.26, 1.63, 7.26, repro,
2006-10-31,-0.38, -2.00, 8.57, 2.26, 1.67, 7.28, repro,
2006-11-01,-0.19, -2.07, 6.74, 2.40, 1.78, 7.60, repro,
2006-11-02,-1.73, -1.94, 1.50, 2.25, 1.67, 7.31, repro,
2006-11-03,-0.32, -1.34, 3.03, 2.45, 1.78, 7.77, repro,
2006-11-04,-0.41, -1.68, 1.79, 2.38, 1.77, 7.76, repro,
2006-11-05,-1.18, -1.30, 5.88, 2.32, 1.69, 7.51, repro,
2006-11-06,0.41, -2.03, 6.99, 2.20, 1.62, 7.19, repro,
2006-11-07,-0.48, -1.10, 14.91, 2.37, 1.73, 7.50, repro,
2006-11-08,-0.32, -1.68, 20.62, 2.33, 1.71, 7.51, repro,
2006-11-09,-0.10, -2.38, 15.79, 2.41, 1.75, 7.64, repro,
2006-11-10,0.86, -3.13, 2.13, 2.31, 1.68, 7.55, repro,
2006-11-11,-0.32, -1.34, 5.40, 2.31, 1.66, 7.43, repro,
2006-11-12,-0.68, -0.50, 6.09, 2.37, 1.70, 7.60, repro,
2006-11-13,-1.77, -1.90, 13.70, 2.32, 1.66, 7.53, repro,
2006-11-14,0.77, -1.87, 11.74, 2.55, 1.88, 8.49, repro,
2006-11-15,0.13, -1.90, 7.78, 2.19, 1.57, 7.13, repro,
2006-11-16,-0.59, -1.72, 14.49, 2.19, 1.57, 7.13, repro,
2006-11-17,-0.80, -1.93, 14.34, 2.25, 1.61, 7.39, repro,
2006-11-18,-0.08, -2.40, 8.26, 2.31, 1.71, 7.72, repro,
2006-11-19,-0.86, -0.85, 0.76, 2.18, 1.57, 7.10, repro,
2006-11-20,-1.13, -1.57, 9.63, 2.30, 1.66, 7.47, repro,
2006-11-21,-1.26, -1.55, 11.49, 2.19, 1.57, 7.14, repro,
2006-11-22,0.11, -1.82, 7.46, 2.16, 1.56, 7.04, repro,
2006-11-23,0.13, -1.27, 6.25, 2.23, 1.61, 7.28, repro,
2006-11-24,-1.17, -1.90, 7.29, 2.22, 1.62, 7.29, repro,
2006-11-25,-0.34, -1.47, 8.56, 2.19, 1.58, 7.14, repro,
2006-11-26,-0.95, -2.12, 7.81, 2.23, 1.61, 7.30, repro,
2006-11-27,1.11, -1.64, 4.96, 2.22, 1.59, 7.24, repro,
2006-11-28,-0.00, -1.03, 7.80, 2.20, 1.57, 7.14, repro,
2006-11-29,-0.59, -2.54, 9.02, 2.15, 1.56, 7.00, repro,
2006-11-30,-0.60, -2.30, 1.19, 2.20, 1.57, 7.13, repro,
2006-12-01,-1.42, -1.80, 8.35, 2.19, 1.58, 7.18, repro,
2006-12-02,0.44, -2.02, -3.30, 2.19, 1.57, 7.16, repro,
2006-12-03,-1.33, -2.59, -5.14, 2.18, 1.56, 7.08, repro,
2006-12-04,-1.44, -1.25, 3.24, 2.22, 1.59, 7.21, repro,
2006-12-05,-2.15, -0.52, 9.38, 2.39, 1.81, 7.96, repro,
2006-12-06,-0.88, -2.17, 8.45, 2.26, 1.64, 7.44, repro,
2006-12-07,-1.99, -2.01, -8.07, 2.22, 1.59, 7.25, repro,
2006-12-08,-2.01, -1.09, 3.79, 2.27, 1.62, 7.39, repro,
2006-12-09,-1.14, -0.91, 14.48, 2.29, 1.64, 7.46, repro,
2006-12-10,-0.97, -0.89, 11.78, 2.27, 1.64, 7.38, repro,
2006-12-11,-1.30, -0.19, 9.33, 2.17, 1.57, 7.08, repro,
2006-12-12,-1.65, -1.44, 12.19, 2.30, 1.64, 7.46, repro,
2006-12-13,-1.12, -1.93, 12.09, 2.27, 1.62, 7.47, repro,
2006-12-14,-1.43, -1.50, 16.89, 2.41, 1.73, 8.03, repro,
2006-12-15,-0.91, -0.77, 17.05, 2.40, 1.77, 7.85, repro,
2006-12-16,-2.27, -1.00, 12.96, 2.44, 1.71, 7.79, repro,
2006-12-17,-1.66, -1.63, 10.63, 2.46, 1.78, 7.96, repro,
2006-12-18,-0.62, -2.28, 3.85, 2.52, 1.82, 8.30, repro,
2006-12-19,-2.70, -1.23, 9.40, 2.44, 1.70, 7.82, repro,
2006-12-20,-1.27, -1.40, 10.19, 2.33, 1.65, 7.53, repro,
2006-12-21,-1.11, -1.73, 7.51, 2.15, 1.56, 6.98, repro,
2006-12-22,-2.58, -0.99, 6.27, 2.46, 1.76, 7.87, repro,
2006-12-23,-1.69, -2.60, 9.63, 2.33, 1.68, 7.52, repro,
2006-12-24,-0.80, -1.47, 8.22, 2.22, 1.58, 7.20, repro,
2006-12-25,-0.02, -1.55, 6.14, 2.26, 1.61, 7.29, repro,
2006-12-26,-1.07, -1.27, 9.60, 2.25, 1.65, 7.37, repro,
2006-12-27,-2.01, -0.94, 13.88, 2.32, 1.63, 7.34, repro,
2006-12-28,-0.87, -1.38, 15.06, 2.59, 1.73, 8.02, repro,
2006-12-29,-2.16, -1.56, -3.25, 2.50, 1.80, 8.29, repro,
2006-12-30,-1.25, -1.64, 0.22, 2.33, 1.65, 7.44, repro,
2006-12-31,-1.71, -1.24, 5.70, 2.51, 1.83, 8.23, repro,
2007-05-17,-1.35, -1.78, -0.68, 2.20, 1.61, 7.21, repro,
2007-05-18,-1.35, -0.76, -0.73, 2.27, 1.66, 7.53, repro,
2007-05-19,0.03, -0.86, -0.90, 2.25, 1.62, 7.30, repro,
2007-05-20,-0.88, -1.10, 1.50, 2.25, 1.61, 7.30, repro,
2007-05-21,1.65, 1.32, -0.26, 2.32, 1.71, 7.73, repro,
2007-05-22,-0.15, -2.07, 6.06, 2.26, 1.64, 7.34, repro,
2007-05-23,-1.67, -1.79, 3.62, 2.91, 2.19, 9.48, repro,
2007-05-24,-0.64, -2.05, -5.61, 2.31, 1.68, 7.47, repro,
2007-05-25,-1.25, -1.39, -2.80, 2.18, 1.57, 7.03, repro,
2007-05-26,0.39, -1.48, -6.01, 2.34, 1.66, 7.61, repro,
2007-05-27,-1.00, -2.01, -1.10, 2.17, 1.57, 7.00, repro,
2007-05-28,-1.05, -1.15, 4.44, 2.41, 1.75, 7.73, repro,
2007-05-29,-1.86, -0.57, 3.58, 2.24, 1.62, 7.25, repro,
2007-05-30,-0.52, -1.75, -1.63, 2.39, 1.74, 7.75, repro,
2007-05-31,-0.63, -0.81, -2.91, 2.33, 1.67, 7.54, repro,
2007-06-01,-0.19, -1.29, 0.54, 2.17, 1.58, 7.06, repro,
2007-06-02,-1.49, -2.59, -1.38, 2.19, 1.58, 7.09, repro,
2007-06-03,0.49, -3.16, 3.36, 2.20, 1.59, 7.08, repro,
2007-06-04,-0.82, -2.29, 0.75, 2.20, 1.58, 7.07, repro,
2007-06-05,0.16, -2.34, 4.81, 2.27, 1.63, 7.39, repro,
2007-06-06,-0.77, -0.57, 7.42, 2.17, 1.58, 7.03, repro,
2007-06-07,0.07, 0.16, 18.11, 2.37, 1.71, 7.73, repro,
2007-06-08,0.46, -2.05, 2.75, 2.28, 1.63, 7.28, repro,
2007-06-09,-2.37, -2.40, -2.67, 2.45, 1.71, 7.75, repro,
2007-06-10,-1.99, -0.53, 3.54, 2.43, 1.73, 7.62, repro,
2007-06-11,-0.49, -1.78, 0.83, 2.91, 2.03, 9.19, repro,
2007-06-12,0.15, -0.69, -1.60, 2.40, 1.69, 7.64, repro,
2007-06-13,-0.83, -1.83, 0.95, 2.38, 1.70, 7.58, repro,
2007-06-14,-1.42, -2.09, 0.66, 2.39, 1.68, 7.55, repro,
2007-06-15,-1.61, -2.01, -4.98, 2.40, 1.68, 7.56, repro,
2007-06-16,-1.43, -1.39, -0.60, 2.35, 1.65, 7.39, repro,
2007-06-17,-0.62, -1.42, 3.75, 2.36, 1.68, 7.50, repro,
2007-06-18,-0.58, -3.20, -2.14, 2.38, 1.70, 7.64, repro,
2007-06-19,0.36, -2.16, -3.82, 3.34, 2.24, 10.18, repro,
2007-06-20,-0.14, -1.54, -2.76, 2.37, 1.68, 7.52, repro,
2007-06-21,-1.37, -1.78, -5.46, 2.36, 1.66, 7.49, repro,
2007-06-22,-0.42, -1.66, -5.09, 2.37, 1.67, 7.47, repro,
2007-06-23,0.22, -2.70, 2.98, 2.41, 1.70, 7.71, repro,
2007-06-24,-0.13, -2.43, -4.59, 2.44, 1.74, 7.79, repro,
2007-06-26,4.00, -1.87, -4.04, 5.22, 3.25, 14.37, repro,
2007-06-27,0.13, -2.42, -7.53, 2.39, 1.67, 7.52, repro,
2007-06-28,-0.43, -1.92, -4.67, 2.35, 1.66, 7.41, repro,
2007-06-29,-1.95, -2.52, 0.01, 2.34, 1.67, 7.46, repro,
2007-06-30,-0.09, -1.02, -0.81, 2.34, 1.67, 7.43, repro,
2007-07-01,-1.00, -1.37, 5.31, 2.37, 1.67, 7.49, repro,
2007-07-02,-0.01, -3.80, -2.06, 2.44, 1.72, 7.65, repro,
2007-07-03,-1.48, -2.55, -5.14, 2.40, 1.67, 7.48, repro,
2007-07-04,-0.96, -2.46, 3.27, 2.39, 1.67, 7.51, repro,
2007-07-05,1.77, -1.51, 2.01, 2.35, 1.67, 7.47, repro,